Year,Month,Day,Hour,Minute,Value (Times are PST for temperature in C)
2018,08,04,00,00,15.90
2018,08,04,00,01,15.90
2018,08,04,00,02,15.90
2018,08,04,00,03,15.90
2018,08,04,00,04,15.90
2018,08,04,00,05,15.90
2018,08,04,00,06,15.90
2018,08,04,00,07,15.90
2018,08,04,00,08,15.90
2018,08,04,00,09,15.90
2018,08,04,00,10,15.80
2018,08,04,00,11,15.80
2018,08,04,00,12,15.80
2018,08,04,00,13,15.80
2018,08,04,00,14,15.80
2018,08,04,00,15,15.80
2018,08,04,00,16,15.70
2018,08,04,00,17,15.70
2018,08,04,00,18,15.70
2018,08,04,00,19,15.70
2018,08,04,00,20,15.70
2018,08,04,00,21,15.60
2018,08,04,00,22,15.60
2018,08,04,00,23,15.60
2018,08,04,00,24,15.60
2018,08,04,00,25,15.60
2018,08,04,00,26,15.60
2018,08,04,00,27,15.60
2018,08,04,00,28,15.60
2018,08,04,00,29,15.60
2018,08,04,00,30,15.50
2018,08,04,00,31,15.50
2018,08,04,00,32,15.60
2018,08,04,00,33,15.60
2018,08,04,00,34,15.60
2018,08,04,00,35,15.70
2018,08,04,00,36,15.70
2018,08,04,00,37,15.70
2018,08,04,00,38,15.80
2018,08,04,00,39,15.80
2018,08,04,00,40,15.90
2018,08,04,00,41,15.90
2018,08,04,00,42,15.90
2018,08,04,00,43,15.90
2018,08,04,00,44,15.80
2018,08,04,00,45,15.80
2018,08,04,00,46,15.80
2018,08,04,00,47,15.70
2018,08,04,00,48,15.70
2018,08,04,00,49,15.70
2018,08,04,00,50,15.60
2018,08,04,00,51,15.60
2018,08,04,00,52,15.60
2018,08,04,00,53,15.70
2018,08,04,00,54,15.70
2018,08,04,00,55,15.70
2018,08,04,00,56,15.70
2018,08,04,00,57,15.70
2018,08,04,00,58,15.70
2018,08,04,00,59,15.70
2018,08,04,01,00,15.70
2018,08,04,01,01,15.70
2018,08,04,01,02,15.70
2018,08,04,01,03,15.70
2018,08,04,01,04,15.70
2018,08,04,01,05,15.70
2018,08,04,01,06,15.70
2018,08,04,01,07,15.70
2018,08,04,01,08,15.70
2018,08,04,01,09,15.70
2018,08,04,01,10,15.70
2018,08,04,01,11,15.70
2018,08,04,01,12,15.70
2018,08,04,01,13,15.60
2018,08,04,01,14,15.60
2018,08,04,01,15,15.60
2018,08,04,01,16,15.60
2018,08,04,01,17,15.60
2018,08,04,01,18,15.50
2018,08,04,01,19,15.50
2018,08,04,01,20,15.50
2018,08,04,01,21,15.50
2018,08,04,01,22,15.50
2018,08,04,01,23,15.40
2018,08,04,01,24,15.40
2018,08,04,01,25,15.40
2018,08,04,01,26,15.40
2018,08,04,01,27,15.40
2018,08,04,01,28,15.30
2018,08,04,01,29,15.30
2018,08,04,01,30,15.30
2018,08,04,01,31,15.20
2018,08,04,01,32,15.20
2018,08,04,01,33,15.10
2018,08,04,01,34,15.10
2018,08,04,01,35,15.00
2018,08,04,01,36,15.00
2018,08,04,01,37,15.00
2018,08,04,01,38,15.00
2018,08,04,01,39,15.00
2018,08,04,01,40,15.00
2018,08,04,01,41,15.00
2018,08,04,01,42,15.00
2018,08,04,01,43,15.00
2018,08,04,01,44,15.00
2018,08,04,01,45,15.00
2018,08,04,01,46,15.00
2018,08,04,01,47,15.00
2018,08,04,01,48,15.00
2018,08,04,01,49,15.00
2018,08,04,01,50,15.00
2018,08,04,01,51,15.00
2018,08,04,01,52,15.00
2018,08,04,01,53,15.00
2018,08,04,01,54,15.00
2018,08,04,01,55,15.00
2018,08,04,01,56,15.00
2018,08,04,01,57,15.00
2018,08,04,01,58,14.90
2018,08,04,01,59,14.90
2018,08,04,02,00,14.90
2018,08,04,02,01,14.90
2018,08,04,02,02,14.90
2018,08,04,02,03,15.00
2018,08,04,02,04,15.00
2018,08,04,02,05,15.00
2018,08,04,02,06,15.00
2018,08,04,02,07,15.00
2018,08,04,02,08,15.00
2018,08,04,02,09,15.00
2018,08,04,02,10,15.00
2018,08,04,02,11,15.00
2018,08,04,02,12,15.00
2018,08,04,02,13,15.00
2018,08,04,02,14,15.00
2018,08,04,02,15,15.00
2018,08,04,02,16,15.00
2018,08,04,02,17,15.00
2018,08,04,02,18,15.00
2018,08,04,02,19,15.00
2018,08,04,02,20,15.00
2018,08,04,02,21,15.00
2018,08,04,02,22,15.00
2018,08,04,02,23,15.00
2018,08,04,02,24,15.00
2018,08,04,02,25,15.00
2018,08,04,02,26,15.00
2018,08,04,02,27,15.00
2018,08,04,02,28,15.00
2018,08,04,02,29,14.90
2018,08,04,02,30,14.90
2018,08,04,02,31,14.90
2018,08,04,02,32,14.90
2018,08,04,02,33,14.90
2018,08,04,02,34,14.90
2018,08,04,02,35,14.80
2018,08,04,02,36,14.80
2018,08,04,02,37,14.80
2018,08,04,02,38,14.80
2018,08,04,02,39,14.80
2018,08,04,02,40,14.80
2018,08,04,02,41,14.80
2018,08,04,02,42,14.80
2018,08,04,02,43,14.80
2018,08,04,02,44,14.80
2018,08,04,02,45,14.80
2018,08,04,02,46,14.80
2018,08,04,02,47,14.80
2018,08,04,02,48,14.80
2018,08,04,02,49,14.70
2018,08,04,02,50,14.60
2018,08,04,02,51,14.60
2018,08,04,02,52,14.50
2018,08,04,02,53,14.50
2018,08,04,02,54,14.40
2018,08,04,02,55,14.40
2018,08,04,02,56,14.40
2018,08,04,02,57,14.40
2018,08,04,02,58,14.40
2018,08,04,02,59,14.40
2018,08,04,03,00,14.40
2018,08,04,03,01,14.40
2018,08,04,03,02,14.30
2018,08,04,03,03,14.30
2018,08,04,03,04,14.30
2018,08,04,03,05,14.30
2018,08,04,03,06,14.30
2018,08,04,03,07,14.30
2018,08,04,03,08,14.20
2018,08,04,03,09,14.20
2018,08,04,03,10,14.20
2018,08,04,03,11,14.20
2018,08,04,03,12,14.10
2018,08,04,03,13,14.10
2018,08,04,03,14,14.10
2018,08,04,03,15,14.10
2018,08,04,03,16,14.10
2018,08,04,03,17,14.10
2018,08,04,03,18,14.10
2018,08,04,03,19,14.00
2018,08,04,03,20,14.00
2018,08,04,03,21,14.00
2018,08,04,03,22,14.00
2018,08,04,03,23,14.00
2018,08,04,03,24,14.00
2018,08,04,03,25,14.00
2018,08,04,03,26,14.00
2018,08,04,03,27,14.00
2018,08,04,03,28,14.00
2018,08,04,03,29,14.00
2018,08,04,03,30,14.00
2018,08,04,03,31,14.00
2018,08,04,03,32,14.10
2018,08,04,03,33,14.10
2018,08,04,03,34,14.10
2018,08,04,03,35,14.10
2018,08,04,03,36,14.20
2018,08,04,03,37,14.20
2018,08,04,03,38,14.20
2018,08,04,03,39,14.20
2018,08,04,03,40,14.20
2018,08,04,03,41,14.20
2018,08,04,03,42,14.20
2018,08,04,03,43,14.20
2018,08,04,03,44,14.20
2018,08,04,03,45,14.30
2018,08,04,03,46,14.30
2018,08,04,03,47,14.30
2018,08,04,03,48,14.30
2018,08,04,03,49,14.30
2018,08,04,03,50,14.30
2018,08,04,03,51,14.40
2018,08,04,03,52,14.40
2018,08,04,03,53,14.40
2018,08,04,03,54,14.40
2018,08,04,03,55,14.40
2018,08,04,03,56,14.40
2018,08,04,03,57,14.40
2018,08,04,03,58,14.40
2018,08,04,03,59,14.40
2018,08,04,04,00,14.40
2018,08,04,04,01,14.30
2018,08,04,04,02,14.30
2018,08,04,04,03,14.30
2018,08,04,04,04,14.20
2018,08,04,04,05,14.20
2018,08,04,04,06,14.20
2018,08,04,04,07,14.20
2018,08,04,04,08,14.20
2018,08,04,04,09,14.20
2018,08,04,04,10,14.20
2018,08,04,04,11,14.20
2018,08,04,04,12,14.20
2018,08,04,04,13,14.20
2018,08,04,04,14,14.20
2018,08,04,04,15,14.30
2018,08,04,04,16,14.30
2018,08,04,04,17,14.30
2018,08,04,04,18,14.30
2018,08,04,04,19,14.20
2018,08,04,04,20,14.20
2018,08,04,04,21,14.20
2018,08,04,04,22,14.10
2018,08,04,04,23,14.10
2018,08,04,04,24,14.10
2018,08,04,04,25,14.10
2018,08,04,04,26,14.10
2018,08,04,04,27,14.10
2018,08,04,04,28,14.10
2018,08,04,04,29,14.10
2018,08,04,04,30,14.10
2018,08,04,04,31,14.10
2018,08,04,04,32,14.10
2018,08,04,04,33,14.00
2018,08,04,04,34,14.00
2018,08,04,04,35,13.90
2018,08,04,04,36,13.90
2018,08,04,04,37,13.90
2018,08,04,04,38,13.90
2018,08,04,04,39,13.90
2018,08,04,04,40,13.90
2018,08,04,04,41,13.90
2018,08,04,04,42,13.90
2018,08,04,04,43,13.90
2018,08,04,04,44,13.90
2018,08,04,04,45,13.90
2018,08,04,04,46,13.90
2018,08,04,04,47,13.90
2018,08,04,04,48,13.90
2018,08,04,04,49,13.90
2018,08,04,04,50,13.90
2018,08,04,04,51,13.80
2018,08,04,04,52,13.80
2018,08,04,04,53,13.80
2018,08,04,04,54,13.80
2018,08,04,04,55,13.80
2018,08,04,04,56,13.80
2018,08,04,04,57,13.80
2018,08,04,04,58,13.70
2018,08,04,04,59,13.70
2018,08,04,05,00,13.70
2018,08,04,05,01,13.80
2018,08,04,05,02,13.80
2018,08,04,05,03,13.80
2018,08,04,05,04,13.80
2018,08,04,05,05,13.80
2018,08,04,05,06,13.80
2018,08,04,05,07,13.80
2018,08,04,05,08,13.80
2018,08,04,05,09,13.80
2018,08,04,05,10,13.80
2018,08,04,05,11,13.80
2018,08,04,05,12,13.80
2018,08,04,05,13,13.80
2018,08,04,05,14,13.80
2018,08,04,05,15,13.70
2018,08,04,05,16,13.70
2018,08,04,05,17,13.70
2018,08,04,05,18,13.70
2018,08,04,05,19,13.70
2018,08,04,05,20,13.70
2018,08,04,05,21,13.70
2018,08,04,05,22,13.80
2018,08,04,05,23,13.80
2018,08,04,05,24,13.80
2018,08,04,05,25,13.80
2018,08,04,05,26,13.90
2018,08,04,05,27,13.90
2018,08,04,05,28,13.90
2018,08,04,05,29,13.90
2018,08,04,05,30,14.00
2018,08,04,05,31,14.00
2018,08,04,05,32,14.00
2018,08,04,05,33,14.00
2018,08,04,05,34,14.00
2018,08,04,05,35,14.00
2018,08,04,05,36,14.00
2018,08,04,05,37,14.00
2018,08,04,05,38,14.00
2018,08,04,05,39,14.00
2018,08,04,05,40,14.00
2018,08,04,05,41,14.00
2018,08,04,05,42,14.00
2018,08,04,05,43,14.00
2018,08,04,05,44,14.00
2018,08,04,05,45,14.00
2018,08,04,05,46,14.00
2018,08,04,05,47,14.00
2018,08,04,05,48,14.10
2018,08,04,05,49,14.10
2018,08,04,05,50,14.10
2018,08,04,05,51,14.10
2018,08,04,05,52,14.10
2018,08,04,05,53,14.10
2018,08,04,05,54,14.10
2018,08,04,05,55,14.10
2018,08,04,05,56,14.10
2018,08,04,05,57,14.20
2018,08,04,05,58,14.20
2018,08,04,05,59,14.20
2018,08,04,06,00,14.20
2018,08,04,06,01,14.20
2018,08,04,06,02,14.20
2018,08,04,06,03,14.20
2018,08,04,06,04,14.20
2018,08,04,06,05,14.20
2018,08,04,06,06,14.30
2018,08,04,06,07,14.30
2018,08,04,06,08,14.30
2018,08,04,06,09,14.30
2018,08,04,06,10,14.30
2018,08,04,06,11,14.30
2018,08,04,06,12,14.30
2018,08,04,06,13,14.30
2018,08,04,06,14,14.30
2018,08,04,06,15,14.30
2018,08,04,06,16,14.30
2018,08,04,06,17,14.30
2018,08,04,06,18,14.30
2018,08,04,06,19,14.30
2018,08,04,06,20,14.30
2018,08,04,06,21,14.30
2018,08,04,06,22,14.30
2018,08,04,06,23,14.30
2018,08,04,06,24,14.30
2018,08,04,06,25,14.30
2018,08,04,06,26,14.30
2018,08,04,06,27,14.40
2018,08,04,06,28,14.40
2018,08,04,06,29,14.40
2018,08,04,06,30,14.40
2018,08,04,06,31,14.40
2018,08,04,06,32,14.40
2018,08,04,06,33,14.40
2018,08,04,06,34,14.40
2018,08,04,06,35,14.40
2018,08,04,06,36,14.40
2018,08,04,06,37,14.40
2018,08,04,06,38,14.40
2018,08,04,06,39,14.50
2018,08,04,06,40,14.50
2018,08,04,06,41,14.50
2018,08,04,06,42,14.60
2018,08,04,06,43,14.60
2018,08,04,06,44,14.60
2018,08,04,06,45,14.70
2018,08,04,06,46,14.70
2018,08,04,06,47,14.70
2018,08,04,06,48,14.70
2018,08,04,06,49,14.80
2018,08,04,06,50,14.80
2018,08,04,06,51,14.80
2018,08,04,06,52,14.80
2018,08,04,06,53,14.90
2018,08,04,06,54,14.90
2018,08,04,06,55,15.00
2018,08,04,06,56,15.00
2018,08,04,06,57,15.00
2018,08,04,06,58,15.00
2018,08,04,06,59,15.00
2018,08,04,07,00,15.00
2018,08,04,07,01,15.00
2018,08,04,07,02,15.00
2018,08,04,07,03,15.10
2018,08,04,07,04,15.20
2018,08,04,07,05,15.20
2018,08,04,07,06,15.20
2018,08,04,07,07,15.30
2018,08,04,07,08,15.30
2018,08,04,07,09,15.30
2018,08,04,07,10,15.40
2018,08,04,07,11,15.40
2018,08,04,07,12,15.50
2018,08,04,07,13,15.50
2018,08,04,07,14,15.60
2018,08,04,07,15,15.60
2018,08,04,07,16,15.70
2018,08,04,07,17,15.80
2018,08,04,07,18,15.80
2018,08,04,07,19,15.90
2018,08,04,07,20,15.90
2018,08,04,07,21,16.00
2018,08,04,07,22,16.10
2018,08,04,07,23,16.10
2018,08,04,07,24,16.10
2018,08,04,07,25,16.20
2018,08,04,07,26,16.20
2018,08,04,07,27,16.30
2018,08,04,07,28,16.30
2018,08,04,07,29,16.30
2018,08,04,07,30,16.30
2018,08,04,07,31,16.40
2018,08,04,07,32,16.40
2018,08,04,07,33,16.50
2018,08,04,07,34,16.50
2018,08,04,07,35,16.60
2018,08,04,07,36,16.60
2018,08,04,07,37,16.70
2018,08,04,07,38,16.70
2018,08,04,07,39,16.80
2018,08,04,07,40,16.80
2018,08,04,07,41,16.90
2018,08,04,07,42,17.00
2018,08,04,07,43,17.10
2018,08,04,07,44,17.20
2018,08,04,07,45,17.30
2018,08,04,07,46,17.40
2018,08,04,07,47,17.50
2018,08,04,07,48,17.60
2018,08,04,07,49,17.70
2018,08,04,07,50,17.80
2018,08,04,07,51,17.90
2018,08,04,07,52,17.90
2018,08,04,07,53,18.00
2018,08,04,07,54,18.00
2018,08,04,07,55,18.10
2018,08,04,07,56,18.10
2018,08,04,07,57,18.10
2018,08,04,07,58,18.10
2018,08,04,07,59,18.10
2018,08,04,08,00,18.10
2018,08,04,08,01,18.10
2018,08,04,08,02,18.10
2018,08,04,08,03,18.20
2018,08,04,08,04,18.20
2018,08,04,08,05,18.20
2018,08,04,08,06,18.30
2018,08,04,08,07,18.30
2018,08,04,08,08,18.30
2018,08,04,08,09,18.30
2018,08,04,08,10,18.30
2018,08,04,08,11,18.30
2018,08,04,08,12,18.30
2018,08,04,08,13,18.40
2018,08,04,08,14,18.40
2018,08,04,08,15,18.50
2018,08,04,08,16,18.60
2018,08,04,08,17,18.60
2018,08,04,08,18,18.70
2018,08,04,08,19,18.70
2018,08,04,08,20,18.70
2018,08,04,08,21,18.70
2018,08,04,08,22,18.60
2018,08,04,08,23,18.60
2018,08,04,08,24,18.50
2018,08,04,08,25,18.50
2018,08,04,08,26,18.50
2018,08,04,08,27,18.40
2018,08,04,08,28,18.40
2018,08,04,08,29,18.40
2018,08,04,08,30,18.40
2018,08,04,08,31,18.50
2018,08,04,08,32,18.50
2018,08,04,08,33,18.50
2018,08,04,08,34,18.60
2018,08,04,08,35,18.60
2018,08,04,08,36,18.70
2018,08,04,08,37,18.80
2018,08,04,08,38,18.80
2018,08,04,08,39,18.90
2018,08,04,08,40,18.90
2018,08,04,08,41,19.00
2018,08,04,08,42,19.00
2018,08,04,08,43,19.10
2018,08,04,08,44,19.10
2018,08,04,08,45,19.10
2018,08,04,08,46,19.10
2018,08,04,08,47,19.00
2018,08,04,08,48,19.00
2018,08,04,08,49,19.00
2018,08,04,08,50,19.00
2018,08,04,08,51,18.90
2018,08,04,08,52,18.90
2018,08,04,08,53,18.90
2018,08,04,08,54,18.90
2018,08,04,08,55,18.90
2018,08,04,08,56,18.90
2018,08,04,08,57,18.90
2018,08,04,08,58,18.90
2018,08,04,08,59,18.90
2018,08,04,09,00,18.90
2018,08,04,09,01,18.90
2018,08,04,09,02,18.90
2018,08,04,09,03,18.90
2018,08,04,09,04,19.00
2018,08,04,09,05,19.00
2018,08,04,09,06,19.00
2018,08,04,09,07,19.00
2018,08,04,09,08,19.00
2018,08,04,09,09,19.10
2018,08,04,09,10,19.10
2018,08,04,09,11,19.10
2018,08,04,09,12,19.10
2018,08,04,09,13,19.20
2018,08,04,09,14,19.20
2018,08,04,09,15,19.30
2018,08,04,09,16,19.40
2018,08,04,09,17,19.50
2018,08,04,09,18,19.60
2018,08,04,09,19,19.70
2018,08,04,09,20,19.80
2018,08,04,09,21,19.90
2018,08,04,09,22,20.00
2018,08,04,09,23,20.10
2018,08,04,09,24,20.20
2018,08,04,09,25,20.20
2018,08,04,09,26,20.10
2018,08,04,09,27,20.10
2018,08,04,09,28,20.10
2018,08,04,09,29,20.10
2018,08,04,09,30,20.20
2018,08,04,09,31,20.20
2018,08,04,09,32,20.20
2018,08,04,09,33,20.20
2018,08,04,09,34,20.20
2018,08,04,09,35,20.30
2018,08,04,09,36,20.30
2018,08,04,09,37,20.30
2018,08,04,09,38,20.40
2018,08,04,09,39,20.40
2018,08,04,09,40,20.50
2018,08,04,09,41,20.60
2018,08,04,09,42,20.60
2018,08,04,09,43,20.60
2018,08,04,09,44,20.60
2018,08,04,09,45,20.70
2018,08,04,09,46,20.70
2018,08,04,09,47,20.70
2018,08,04,09,48,20.70
2018,08,04,09,49,20.80
2018,08,04,09,50,20.80
2018,08,04,09,51,20.80
2018,08,04,09,52,20.80
2018,08,04,09,53,20.80
2018,08,04,09,54,20.80
2018,08,04,09,55,20.80
2018,08,04,09,56,20.80
2018,08,04,09,57,20.80
2018,08,04,09,58,20.80
2018,08,04,09,59,20.80
2018,08,04,10,00,20.80
2018,08,04,10,01,20.80
2018,08,04,10,02,20.70
2018,08,04,10,03,20.70
2018,08,04,10,04,20.70
2018,08,04,10,05,20.70
2018,08,04,10,06,20.80
2018,08,04,10,07,20.90
2018,08,04,10,08,21.00
2018,08,04,10,09,21.10
2018,08,04,10,10,21.10
2018,08,04,10,11,21.00
2018,08,04,10,12,21.00
2018,08,04,10,13,20.90
2018,08,04,10,14,20.90
2018,08,04,10,15,20.90
2018,08,04,10,16,20.90
2018,08,04,10,17,20.90
2018,08,04,10,18,20.90
2018,08,04,10,19,20.80
2018,08,04,10,20,20.80
2018,08,04,10,21,20.80
2018,08,04,10,22,20.80
2018,08,04,10,23,20.70
2018,08,04,10,24,20.70
2018,08,04,10,25,20.60
2018,08,04,10,26,20.60
2018,08,04,10,27,20.60
2018,08,04,10,28,20.60
2018,08,04,10,29,20.60
2018,08,04,10,30,20.60
2018,08,04,10,31,20.60
2018,08,04,10,32,20.60
2018,08,04,10,33,20.60
2018,08,04,10,34,20.60
2018,08,04,10,35,20.50
2018,08,04,10,36,20.50
2018,08,04,10,37,20.40
2018,08,04,10,38,20.40
2018,08,04,10,39,20.30
2018,08,04,10,40,20.20
2018,08,04,10,41,20.10
2018,08,04,10,42,20.00
2018,08,04,10,43,20.00
2018,08,04,10,44,20.00
2018,08,04,10,45,20.00
2018,08,04,10,46,20.10
2018,08,04,10,47,20.10
2018,08,04,10,48,20.20
2018,08,04,10,49,20.20
2018,08,04,10,50,20.20
2018,08,04,10,51,20.20
2018,08,04,10,52,20.20
2018,08,04,10,53,20.20
2018,08,04,10,54,20.20
2018,08,04,10,55,20.20
2018,08,04,10,56,20.20
2018,08,04,10,57,20.20
2018,08,04,10,58,20.30
2018,08,04,10,59,20.30
2018,08,04,11,00,20.30
2018,08,04,11,01,20.40
2018,08,04,11,02,20.50
2018,08,04,11,03,20.50
2018,08,04,11,04,20.50
2018,08,04,11,05,20.40
2018,08,04,11,06,20.40
2018,08,04,11,07,20.50
2018,08,04,11,08,20.60
2018,08,04,11,09,20.60
2018,08,04,11,10,20.70
2018,08,04,11,11,20.80
2018,08,04,11,12,20.90
2018,08,04,11,13,20.80
2018,08,04,11,14,20.70
2018,08,04,11,15,20.70
2018,08,04,11,16,20.80
2018,08,04,11,17,20.80
2018,08,04,11,18,20.70
2018,08,04,11,19,20.70
2018,08,04,11,20,20.60
2018,08,04,11,21,20.60
2018,08,04,11,22,20.50
2018,08,04,11,23,20.50
2018,08,04,11,24,20.50
2018,08,04,11,25,20.50
2018,08,04,11,26,20.50
2018,08,04,11,27,20.50
2018,08,04,11,28,20.60
2018,08,04,11,29,20.70
2018,08,04,11,30,20.80
2018,08,04,11,31,20.90
2018,08,04,11,32,21.00
2018,08,04,11,33,21.00
2018,08,04,11,34,21.10
2018,08,04,11,35,21.10
2018,08,04,11,36,21.10
2018,08,04,11,37,21.10
2018,08,04,11,38,21.10
2018,08,04,11,39,21.00
2018,08,04,11,40,21.00
2018,08,04,11,41,20.90
2018,08,04,11,42,20.80
2018,08,04,11,43,20.80
2018,08,04,11,44,20.80
2018,08,04,11,45,20.80
2018,08,04,11,46,20.80
2018,08,04,11,47,20.80
2018,08,04,11,48,20.70
2018,08,04,11,49,20.60
2018,08,04,11,50,20.60
2018,08,04,11,51,20.60
2018,08,04,11,52,20.60
2018,08,04,11,53,20.60
2018,08,04,11,54,20.70
2018,08,04,11,55,20.80
2018,08,04,11,56,20.80
2018,08,04,11,57,20.80
2018,08,04,11,58,20.80
2018,08,04,11,59,20.80
2018,08,04,12,00,20.80
2018,08,04,12,01,20.80
2018,08,04,12,02,20.90
2018,08,04,12,03,20.90
2018,08,04,12,04,20.90
2018,08,04,12,05,21.00
2018,08,04,12,06,21.00
2018,08,04,12,07,20.90
2018,08,04,12,08,20.80
2018,08,04,12,09,20.70
2018,08,04,12,10,20.70
2018,08,04,12,11,20.70
2018,08,04,12,12,20.60
2018,08,04,12,13,20.50
2018,08,04,12,14,20.50
2018,08,04,12,15,20.50
2018,08,04,12,16,20.60
2018,08,04,12,17,20.70
2018,08,04,12,18,20.70
2018,08,04,12,19,20.80
2018,08,04,12,20,20.80
2018,08,04,12,21,20.90
2018,08,04,12,22,20.90
2018,08,04,12,23,20.90
2018,08,04,12,24,20.90
2018,08,04,12,25,20.90
2018,08,04,12,26,20.90
2018,08,04,12,27,21.00
2018,08,04,12,28,21.00
2018,08,04,12,29,21.10
2018,08,04,12,30,21.10
2018,08,04,12,31,21.00
2018,08,04,12,32,21.00
2018,08,04,12,33,21.10
2018,08,04,12,34,21.10
2018,08,04,12,35,21.20
2018,08,04,12,36,21.30
2018,08,04,12,37,21.30
2018,08,04,12,38,21.30
2018,08,04,12,39,21.30
2018,08,04,12,40,21.30
2018,08,04,12,41,21.40
2018,08,04,12,42,21.50
2018,08,04,12,43,21.60
2018,08,04,12,44,21.60
2018,08,04,12,45,21.60
2018,08,04,12,46,21.60
2018,08,04,12,47,21.70
2018,08,04,12,48,21.70
2018,08,04,12,49,21.70
2018,08,04,12,50,21.70
2018,08,04,12,51,21.70
2018,08,04,12,52,21.70
2018,08,04,12,53,21.70
2018,08,04,12,54,21.70
2018,08,04,12,55,21.70
2018,08,04,12,56,21.70
2018,08,04,12,57,21.80
2018,08,04,12,58,21.80
2018,08,04,12,59,21.90
2018,08,04,13,00,21.90
2018,08,04,13,01,21.90
2018,08,04,13,02,22.00
2018,08,04,13,03,22.10
2018,08,04,13,04,22.20
2018,08,04,13,05,22.20
2018,08,04,13,06,22.20
2018,08,04,13,07,22.20
2018,08,04,13,08,22.20
2018,08,04,13,09,22.10
2018,08,04,13,10,22.00
2018,08,04,13,11,21.90
2018,08,04,13,12,21.90
2018,08,04,13,13,21.90
2018,08,04,13,14,21.90
2018,08,04,13,15,21.90
2018,08,04,13,16,21.90
2018,08,04,13,17,21.90
2018,08,04,13,18,21.90
2018,08,04,13,19,21.90
2018,08,04,13,20,22.00
2018,08,04,13,21,22.10
2018,08,04,13,22,22.30
2018,08,04,13,23,22.40
2018,08,04,13,24,22.40
2018,08,04,13,25,22.40
2018,08,04,13,26,22.30
2018,08,04,13,27,22.20
2018,08,04,13,28,22.20
2018,08,04,13,29,22.30
2018,08,04,13,30,22.30
2018,08,04,13,31,22.40
2018,08,04,13,32,22.40
2018,08,04,13,33,22.40
2018,08,04,13,34,22.40
2018,08,04,13,35,22.40
2018,08,04,13,36,22.40
2018,08,04,13,37,22.40
2018,08,04,13,38,22.50
2018,08,04,13,39,22.60
2018,08,04,13,40,22.60
2018,08,04,13,41,22.60
2018,08,04,13,42,22.60
2018,08,04,13,43,22.60
2018,08,04,13,44,22.60
2018,08,04,13,45,22.60
2018,08,04,13,46,22.60
2018,08,04,13,47,22.70
2018,08,04,13,48,22.80
2018,08,04,13,49,22.90
2018,08,04,13,50,23.00
2018,08,04,13,51,23.10
2018,08,04,13,52,23.20
2018,08,04,13,53,23.20
2018,08,04,13,54,23.20
2018,08,04,13,55,23.10
2018,08,04,13,56,23.10
2018,08,04,13,57,23.20
2018,08,04,13,58,23.20
2018,08,04,13,59,23.20
2018,08,04,14,00,23.30
2018,08,04,14,01,23.40
2018,08,04,14,02,23.40
2018,08,04,14,03,23.50
2018,08,04,14,04,23.40
2018,08,04,14,05,23.40
2018,08,04,14,06,23.40
2018,08,04,14,07,23.40
2018,08,04,14,08,23.40
2018,08,04,14,09,23.30
2018,08,04,14,10,23.30
2018,08,04,14,11,23.20
2018,08,04,14,12,23.30
2018,08,04,14,13,23.30
2018,08,04,14,14,23.20
2018,08,04,14,15,23.20
2018,08,04,14,16,23.20
2018,08,04,14,17,23.20
2018,08,04,14,18,23.10
2018,08,04,14,19,23.10
2018,08,04,14,20,23.20
2018,08,04,14,21,23.20
2018,08,04,14,22,23.20
2018,08,04,14,23,23.30
2018,08,04,14,24,23.40
2018,08,04,14,25,23.40
2018,08,04,14,26,23.50
2018,08,04,14,27,23.50
2018,08,04,14,28,23.60
2018,08,04,14,29,23.70
2018,08,04,14,30,23.70
2018,08,04,14,31,23.70
2018,08,04,14,32,23.60
2018,08,04,14,33,23.60
2018,08,04,14,34,23.60
2018,08,04,14,35,23.60
2018,08,04,14,36,23.60
2018,08,04,14,37,23.60
2018,08,04,14,38,23.70
2018,08,04,14,39,23.70
2018,08,04,14,40,23.70
2018,08,04,14,41,23.80
2018,08,04,14,42,23.80
2018,08,04,14,43,23.90
2018,08,04,14,44,24.00
2018,08,04,14,45,24.10
2018,08,04,14,46,24.10
2018,08,04,14,47,24.20
2018,08,04,14,48,24.20
2018,08,04,14,49,24.20
2018,08,04,14,50,24.20
2018,08,04,14,51,24.10
2018,08,04,14,52,24.00
2018,08,04,14,53,23.90
2018,08,04,14,54,23.80
2018,08,04,14,55,23.70
2018,08,04,14,56,23.60
2018,08,04,14,57,23.70
2018,08,04,14,58,23.70
2018,08,04,14,59,23.60
2018,08,04,15,00,23.60
2018,08,04,15,01,23.50
2018,08,04,15,02,23.50
2018,08,04,15,03,23.50
2018,08,04,15,04,23.50
2018,08,04,15,05,23.50
2018,08,04,15,06,23.50
2018,08,04,15,07,23.50
2018,08,04,15,08,23.60
2018,08,04,15,09,23.50
2018,08,04,15,10,23.40
2018,08,04,15,11,23.30
2018,08,04,15,12,23.30
2018,08,04,15,13,23.30
2018,08,04,15,14,23.20
2018,08,04,15,15,23.10
2018,08,04,15,16,23.20
2018,08,04,15,17,23.30
2018,08,04,15,18,23.40
2018,08,04,15,19,23.50
2018,08,04,15,20,23.50
2018,08,04,15,21,23.60
2018,08,04,15,22,23.50
2018,08,04,15,23,23.50
2018,08,04,15,24,23.60
2018,08,04,15,25,23.60
2018,08,04,15,26,23.60
2018,08,04,15,27,23.70
2018,08,04,15,28,23.80
2018,08,04,15,29,23.80
2018,08,04,15,30,23.80
2018,08,04,15,31,23.80
2018,08,04,15,32,23.80
2018,08,04,15,33,23.80
2018,08,04,15,34,23.80
2018,08,04,15,35,23.80
2018,08,04,15,36,23.90
2018,08,04,15,37,23.90
2018,08,04,15,38,24.00
2018,08,04,15,39,24.00
2018,08,04,15,40,24.00
2018,08,04,15,41,24.10
2018,08,04,15,42,24.20
2018,08,04,15,43,24.20
2018,08,04,15,44,24.30
2018,08,04,15,45,24.40
2018,08,04,15,46,24.40
2018,08,04,15,47,24.50
2018,08,04,15,48,24.50
2018,08,04,15,49,24.60
2018,08,04,15,50,24.60
2018,08,04,15,51,24.70
2018,08,04,15,52,24.70
2018,08,04,15,53,24.70
2018,08,04,15,54,24.70
2018,08,04,15,55,24.60
2018,08,04,15,56,24.60
2018,08,04,15,57,24.60
2018,08,04,15,58,24.60
2018,08,04,15,59,24.60
2018,08,04,16,00,24.70
2018,08,04,16,01,24.70
2018,08,04,16,02,24.60
2018,08,04,16,03,24.60
2018,08,04,16,04,24.60
2018,08,04,16,05,24.70
2018,08,04,16,06,24.70
2018,08,04,16,07,24.70
2018,08,04,16,08,24.70
2018,08,04,16,09,24.70
2018,08,04,16,10,24.70
2018,08,04,16,11,24.70
2018,08,04,16,12,24.70
2018,08,04,16,13,24.80
2018,08,04,16,14,24.80
2018,08,04,16,15,24.90
2018,08,04,16,16,25.00
2018,08,04,16,17,25.00
2018,08,04,16,18,24.90
2018,08,04,16,19,25.00
2018,08,04,16,20,25.00
2018,08,04,16,21,25.00
2018,08,04,16,22,25.00
2018,08,04,16,23,24.90
2018,08,04,16,24,24.90
2018,08,04,16,25,24.80
2018,08,04,16,26,24.80
2018,08,04,16,27,24.80
2018,08,04,16,28,24.80
2018,08,04,16,29,24.80
2018,08,04,16,30,24.80
2018,08,04,16,31,24.80
2018,08,04,16,32,24.70
2018,08,04,16,33,24.60
2018,08,04,16,34,24.60
2018,08,04,16,35,24.60
2018,08,04,16,36,24.60
2018,08,04,16,37,24.70
2018,08,04,16,38,24.70
2018,08,04,16,39,24.70
2018,08,04,16,40,24.70
2018,08,04,16,41,24.70
2018,08,04,16,42,24.80
2018,08,04,16,43,24.80
2018,08,04,16,44,24.80
2018,08,04,16,45,24.80
2018,08,04,16,46,24.80
2018,08,04,16,47,24.80
2018,08,04,16,48,24.80
2018,08,04,16,49,24.80
2018,08,04,16,50,24.90
2018,08,04,16,51,24.90
2018,08,04,16,52,24.90
2018,08,04,16,53,24.90
2018,08,04,16,54,24.90
2018,08,04,16,55,24.90
2018,08,04,16,56,24.90
2018,08,04,16,57,24.90
2018,08,04,16,58,24.90
2018,08,04,16,59,24.90
2018,08,04,17,00,24.80
2018,08,04,17,01,24.80
2018,08,04,17,02,24.70
2018,08,04,17,03,24.60
2018,08,04,17,04,24.60
2018,08,04,17,05,24.60
2018,08,04,17,06,24.60
2018,08,04,17,07,24.70
2018,08,04,17,08,24.80
2018,08,04,17,09,24.80
2018,08,04,17,10,24.90
2018,08,04,17,11,24.90
2018,08,04,17,12,25.00
2018,08,04,17,13,25.00
2018,08,04,17,14,25.00
2018,08,04,17,15,25.10
2018,08,04,17,16,25.10
2018,08,04,17,17,25.20
2018,08,04,17,18,25.20
2018,08,04,17,19,25.20